Location: Aulus
(42.7909°N, 1.3399°E)
Time: 21:03:33
(UTC+00:00)

BlueWalker 3 - Pass Details

Date: 19 May 2025
Orbit: 460 x 472 km, 53.2° (Epoch: 21 June)

Event Time Altitude Azimuth Distance (km) Brightness Sun altitude
Rises 21:04:09 0° 309° (NW) 2,494 7.2 -16.4°
Reaches altitude 10° 21:06:25 10° 318° (NW) 1,619 5.9 -16.7°
Maximum altitude 21:09:50 38° 28° (NNE) 730 2.9 -17.1°
Enters shadow 21:11:31 23° 80° (E) 1,020 3.2 -17.3°
